| time (UTC) | temp C | wind direction | speed KPH | gust KPH | rain 1hr cm | rain 24hr cm | rain mn cm | humidity % | barometer mb |
| 20260506013037 | 20 | 0 | 0.0 | 0.0 | 0.00 | 0.00 | 0.00 | 87 | 1014.1 |
| 20260506011541 | 20 | 0 | 0.0 | 0.0 | 0.00 | 0.00 | 0.00 | 85 | 1014.0 |
| 20260506010049 | 20 | 0 | 0.0 | 0.0 | 0.00 | 0.00 | 0.00 | 84 | 1013.9 |
| 20260506004548 | 21 | 0 | 0.0 | 0.0 | 0.00 | 0.00 | 0.00 | 83 | 1013.9 |
| 20260506003041 | 21 | 0 | 0.0 | 0.0 | 0.00 | 0.00 | 0.00 | 81 | 1013.6 |
| 20260506001536 | 22 | 0 | 0.0 | 1.6 | 0.00 | 0.00 | 0.00 | 79 | 1013.6 |
| 20260506000035 | 22 | 200 | 0.0 | 4.8 | 0.00 | 0.00 | 0.00 | 78 | 1013.7 |
| 20260505234539 | 23 | 191 | 0.0 | 1.6 | 0.00 | 0.00 | 0.00 | 76 | 1013.7 |
| 20260505233037 | 23 | 238 | 1.6 | 8.0 | 0.00 | 0.00 | 0.00 | 73 | 1014.0 |
| 20260505231536 | 24 | 212 | 0.0 | 6.4 | 0.00 | 0.00 | 0.00 | 71 | 1013.9 |
| 20260505230045 | 25 | 0 | 1.6 | 8.0 | 0.00 | 0.00 | 0.00 | 70 | 1013.8 |
| 20260505224544 | 25 | 218 | 3.2 | 8.0 | 0.00 | 0.00 | 0.00 | 70 | 1013.9 |
| 20260505223037 | 24 | 241 | 4.8 | 12.9 | 0.00 | 0.00 | 0.00 | 69 | 1013.7 |
| 20260505221538 | 25 | 236 | 4.8 | 11.3 | 0.00 | 0.00 | 0.00 | 68 | 1013.7 |
| 20260505220042 | 26 | 200 | 1.6 | 9.7 | 0.00 | 0.00 | 0.00 | 66 | 1013.5 |
| 20260505214540 | 26 | 210 | 1.6 | 11.3 | 0.00 | 0.00 | 0.00 | 67 | 1013.4 |
| 20260505213045 | 26 | 147 | 4.8 | 16.1 | 0.00 | 0.00 | 0.00 | 62 | 1013.8 |
| 20260505211542 | 26 | 167 | 3.2 | 9.7 | 0.00 | 0.00 | 0.00 | 63 | 1013.7 |
| 20260505210037 | 26 | 228 | 4.8 | 16.1 | 0.00 | 0.00 | 0.00 | 63 | 1013.8 |
| 20260505204538 | 26 | 210 | 1.6 | 12.9 | 0.00 | 0.00 | 0.00 | 64 | 1013.8 |
| 20260505203044 | 26 | 226 | 8.0 | 19.3 | 0.00 | 0.00 | 0.00 | 61 | 1014.0 |
| 20260505201536 | 26 | 155 | 3.2 | 16.1 | 0.00 | 0.00 | 0.00 | 61 | 1014.1 |
| 20260505200039 | 26 | 181 | 6.4 | 14.5 | 0.00 | 0.00 | 0.00 | 59 | 1014.3 |
| 20260505194547 | 26 | 174 | 3.2 | 16.1 | 0.00 | 0.00 | 0.00 | 57 | 1014.5 |
| 20260505193055 | 27 | 214 | 3.2 | 14.5 | 0.00 | 0.00 | 0.00 | 56 | 1014.6 |
| 20260505191540 | 27 | 237 | 4.8 | 12.9 | 0.00 | 0.00 | 0.00 | 59 | 1014.6 |
| 20260505190041 | 26 | 226 | 4.8 | 20.9 | 0.00 | 0.00 | 0.00 | 55 | 1014.7 |
| 20260505184540 | 26 | 219 | 8.0 | 14.5 | 0.00 | 0.00 | 0.00 | 57 | 1014.9 |
| 20260505183040 | 26 | 175 | 1.6 | 20.9 | 0.00 | 0.00 | 0.00 | 59 | 1015.0 |
| 20260505181537 | 26 | 193 | 4.8 | 19.3 | 0.00 | 0.00 | 0.00 | 61 | 1015.0 |
| 20260505180040 | 26 | 253 | 3.2 | 11.3 | 0.00 | 0.00 | 0.00 | 61 | 1015.2 |
| 20260505174539 | 26 | 204 | 6.4 | 12.9 | 0.00 | 0.00 | 0.00 | 61 | 1015.2 |
| 20260505173039 | 25 | 141 | 6.4 | 17.7 | 0.00 | 0.00 | 0.00 | 63 | 1015.4 |
| 20260505171545 | 25 | 226 | 3.2 | 14.5 | 0.00 | 0.00 | 0.00 | 63 | 1015.3 |
| 20260505170039 | 25 | 136 | 3.2 | 11.3 | 0.00 | 0.00 | 0.00 | 66 | 1015.2 |
| 20260505164540 | 25 | 244 | 1.6 | 11.3 | 0.00 | 0.00 | 0.00 | 66 | 1015.3 |
| 20260505163040 | 25 | 243 | 3.2 | 9.7 | 0.00 | 0.00 | 0.00 | 63 | 1015.3 |
| 20260505161539 | 25 | 174 | 3.2 | 9.7 | 0.00 | 0.00 | 0.00 | 65 | 1015.4 |
| 20260505153044 | 25 | 231 | 3.2 | 14.5 | 0.00 | 0.00 | 0.00 | 63 | 1015.4 |
| 20260505151538 | 24 | 184 | 4.8 | 9.7 | 0.00 | 0.00 | 0.00 | 61 | 1015.3 |
| 20260505124544 | 13 | 0 | 0.0 | 0.0 | 0.00 | 0.00 | 0.00 | 97 | 1015.1 |
| 20260505123052 | 12 | 0 | 0.0 | 0.0 | 0.00 | 0.00 | 0.00 | 96 | 1014.9 |
| 20260505121538 | 11 | 0 | 0.0 | 0.0 | 0.00 | 0.00 | 0.00 | 96 | 1014.8 |
| 20260505120051 | 10 | 0 | 0.0 | 0.0 | 0.00 | 0.00 | 0.00 | 96 | 1014.7 |
| 20260505114538 | 10 | 0 | 0.0 | 0.0 | 0.00 | 0.00 | 0.00 | 96 | 1014.6 |
| 20260505113035 | 10 | 0 | 0.0 | 0.0 | 0.00 | 0.00 | 0.00 | 95 | 1014.4 |
| 20260505111540 | 10 | 0 | 0.0 | 0.0 | 0.00 | 0.00 | 0.00 | 95 | 1014.2 |
| 20260505101541 | 10 | 0 | 0.0 | 0.0 | 0.00 | 0.00 | 0.00 | 95 | 1014.2 |
| 20260505100041 | 10 | 0 | 0.0 | 0.0 | 0.00 | 0.00 | 0.00 | 95 | 1014.1 |
| 20260505094538 | 10 | 0 | 0.0 | 0.0 | 0.00 | 0.00 | 0.00 | 95 | 1014.0 |
| 20260505093038 | 10 | 0 | 0.0 | 0.0 | 0.00 | 0.00 | 0.00 | 95 | 1014.1 |
| 20260505091538 | 10 | 0 | 0.0 | 0.0 | 0.00 | 0.00 | 0.00 | 95 | 1013.9 |
| 20260505090039 | 10 | 0 | 0.0 | 0.0 | 0.00 | 0.00 | 0.00 | 95 | 1013.8 |
| 20260505084554 | 10 | 0 | 0.0 | 0.0 | 0.00 | 0.00 | 0.00 | 95 | 1013.7 |
| 20260505083058 | 10 | 0 | 0.0 | 0.0 | 0.00 | 0.00 | 0.00 | 95 | 1013.6 |
| 20260505081552 | 10 | 0 | 0.0 | 0.0 | 0.00 | 0.00 | 0.00 | 94 | 1013.6 |
| 20260505080050 | 10 | 0 | 0.0 | 0.0 | 0.00 | 0.00 | 0.00 | 94 | 1013.6 |
| 20260505074537 | 10 | 0 | 0.0 | 0.0 | 0.00 | 0.00 | 0.00 | 94 | 1013.9 |
| 20260505073049 | 10 | 0 | 0.0 | 0.0 | 0.00 | 0.00 | 0.00 | 94 | 1013.7 |
| 20260505071545 | 10 | 0 | 0.0 | 0.0 | 0.00 | 0.00 | 0.00 | 94 | 1013.8 |
| 20260505070043 | 10 | 0 | 0.0 | 0.0 | 0.00 | 0.00 | 0.00 | 94 | 1014.0 |
| 20260505064537 | 10 | 0 | 0.0 | 0.0 | 0.00 | 0.00 | 0.00 | 94 | 1014.1 |
| 20260505063041 | 10 | 0 | 0.0 | 0.0 | 0.00 | 0.00 | 0.00 | 94 | 1014.5 |
| 20260505061542 | 10 | 0 | 0.0 | 0.0 | 0.00 | 0.00 | 0.00 | 93 | 1014.6 |
| 20260505060053 | 11 | 0 | 0.0 | 0.0 | 0.00 | 0.00 | 0.00 | 93 | 1014.9 |
| 20260505054541 | 11 | 0 | 0.0 | 0.0 | 0.00 | 0.00 | 0.00 | 93 | 1014.8 |
| 20260505053040 | 11 | 0 | 0.0 | 0.0 | 0.00 | 0.00 | 0.00 | 93 | 1015.1 |
| 20260505051537 | 11 | 0 | 0.0 | 0.0 | 0.00 | 0.00 | 0.00 | 92 | 1015.3 |
| 20260505041550 | 12 | 0 | 0.0 | 0.0 | 0.00 | 0.00 | 0.00 | 91 | 1015.3 |
| 20260505040046 | 12 | 0 | 0.0 | 0.0 | 0.00 | 0.00 | 0.00 | 90 | 1015.3 |
| 20260505034538 | 12 | 0 | 0.0 | 0.0 | 0.00 | 0.00 | 0.00 | 90 | 1015.3 |
| 20260505033036 | 12 | 0 | 0.0 | 0.0 | 0.00 | 0.00 | 0.00 | 89 | 1015.3 |
| 20260505031539 | 13 | 0 | 0.0 | 0.0 | 0.00 | 0.00 | 0.00 | 89 | 1015.4 |
| 20260505030051 | 13 | 0 | 0.0 | 0.0 | 0.00 | 0.00 | 0.00 | 89 | 1015.4 |
| 20260505024538 | 13 | 0 | 0.0 | 0.0 | 0.00 | 0.00 | 0.00 | 88 | 1015.2 |
| 20260505023037 | 13 | 0 | 0.0 | 0.0 | 0.00 | 0.00 | 0.00 | 87 | 1015.1 |
| 20260505021536 | 13 | 0 | 0.0 | 0.0 | 0.00 | 0.00 | 0.00 | 86 | 1014.9 |
| 20260505020040 | 14 | 0 | 0.0 | 0.0 | 0.00 | 0.00 | 0.00 | 84 | 1015.1 |
| 20260505014600 | 15 | 0 | 0.0 | 0.0 | 0.00 | 0.00 | 0.00 | 83 | 1015.1 |